Location: Guipavas
(48.4352°N, 4.3972°W)
Time: 01:10:45
(UTC+00:00)

Daily predictions for brighter satellites

Satellite Brightness Start Highest point End
(mag) Time Altitude Azimuth Time Altitude Azimuth Time Altitude Azimuth
BREEZE-M DEB (TANK) 4.2 04:13:17 63° E 04:13:17 63° E 04:26:44 10° ESE
Cosmos 1844 Rocket 4.3 04:15:58 29° ESE 04:15:58 29° ESE 04:18:52 10° SE
SL-16 R/B 3.3 04:55:44 34° NNE 04:55:44 34° NNE 04:58:56 10° NNE
USA 215 3.8 04:52:09 10° ENE 04:58:12 42° N 04:58:40 42° NNW
Meteor 1-24 Rocket 3.9 05:00:43 49° NNE 05:01:59 64° ENE 05:07:28 10° SSE
Cosmos 2322 Rocket 2.9 05:03:54 42° N 05:03:54 42° N 05:07:39 10° NNE
Cosmos 2360 Rocket 2.2 05:04:24 77° SE 05:04:28 78° ESE 05:10:07 10° NNE
Okean 1 Rocket 4.5 05:15:34 30° NNE 05:15:34 30° NNE 05:17:55 10° NNE
Cosmos 1980 Rocket 4.2 05:22:21 15° N 05:22:21 15° N 05:23:48 10° N
Cosmos 1844 3.6 05:23:43 70° W 05:24:00 72° WSW 05:29:46 10° SSE
COSMO-SKYMED 1 3.0 05:20:06 10° SSE 05:23:31 55° SSE 05:23:31 55° SSE
FENGYUN 3A 4.3 05:19:46 10° N 05:23:25 41° NNW 05:23:25 41° NNW
Cosmos 2237 4.1 05:25:14 68° WNW 05:25:19 69° WNW 05:31:04 10° NNE
GEOS 3 Rocket 3.8 05:22:16 10° SSE 05:27:19 57° SW 05:27:19 57° SW
Cosmos 1898 Rocket 4.2 05:30:05 21° N 05:33:27 51° ENE 05:38:28 10° SE
Lacrosse 5 rocket 2.8 05:34:22 27° NNE 05:34:22 27° NNE 05:37:28 10° ENE
Cosmos 1725 Rocket 4.3 05:36:24 43° NW 05:36:24 43° NW 05:41:30 10° N
SJ 16-02 1.2 05:37:01 79° SSW 05:37:01 79° SSW 05:41:12 10° SSE
Cosmos 1867 3.4 05:35:54 56° WSW 05:37:03 78° NW 05:42:34 10° NE
BREEZE-M DEB (TANK) 4.5 05:38:46 20° E 05:38:46 20° E 05:39:35 10° E
Cosmos 1470 3.0 05:34:26 10° S 05:38:15 65° E 05:42:06 10° NNE
Meteor PRIRODA 3.9 05:39:12 10° NNE 05:42:50 64° ESE 05:46:25 10° S
YAOGAN 6 4.4 05:40:04 10° NNE 05:43:26 33° E 05:46:47 10° SSE
Cosmos 1689 Rocket 3.8 05:42:07 10° SSE 05:43:39 28° SSE 05:43:39 28° SSE
ERS-2 3.1 05:46:21 10° S 05:48:37 35° S 05:48:37 35° S
BREEZE M DEB (TANK) 3.7 05:52:14 17° SSE 05:52:14 17° SSE 05:52:53 10° SE
PSLV R/B 3.8 05:47:47 10° SSE 05:51:52 88° W 05:53:40 33° NNW
Cosmos 1356 Rocket 3.2 05:48:42 10° S 05:52:44 89° ESE 05:56:53 10° NNE
SL-8 R/B 3.6 05:52:30 53° W 05:53:38 88° S 05:58:28 10° E
Cosmos 2084 4.4 05:50:24 11° SSW 05:54:23 47° SE 05:58:34 10° NE
Meteor 2-5 Rocket 4.1 05:56:49 38° W 05:56:49 38° W 06:01:49 10° SSW
Cosmos 2278 Rocket 2.8 05:51:54 14° NNW 05:56:40 56° ENE 06:02:14 10° SE
Cosmos 1844 Rocket 3.4 05:57:42 33° WSW 05:57:42 33° WSW 06:02:11 10° SSW
SJ-12 4.0 05:54:39 10° N 05:58:43 53° WNW 05:58:45 53° WNW
MOS 1 Rocket 3.3 05:54:28 10° S 05:59:36 69° W 06:03:43 15° NNW
Cosmos 2322 3.6 05:56:12 10° SSW 06:01:55 78° WNW 06:07:41 10° NNE
Nadezhda 4 Rocket 4.3 05:57:17 10° N 06:03:25 67° ENE 06:09:29 10° SSE
Cosmos 2333 Rocket 2.1 05:58:01 10° SSW 06:03:41 87° WNW 06:09:23 10° NNE
Cosmos 1726 2.0 06:01:42 10° S 06:05:24 90° ENE 06:09:08 10° N
Meteor 2-10 4.1 06:01:32 10° S 06:07:14 88° WNW 06:12:49 10° NNE
ADEOS 4.0 06:05:08 10° N 06:09:56 38° WNW 06:12:27 24° WSW
H-2A R/B 2.5 06:06:23 10° N 06:10:04 78° WNW 06:13:46 10° SSW
Cosmos 2237 Rocket 3.9 06:05:27 10° S 06:10:30 35° ESE 06:15:36 10° NE
Cosmos 468 Rocket 4.2 06:05:35 10° SSW 06:10:47 76° ESE 06:16:06 10° NNE
IRIDIUM 104 4.4 06:06:57 10° SSW 06:12:03 53° W 06:17:11 10° N
Okean O Rocket 3.8 06:08:49 10° NE 06:12:35 27° E 06:16:18 10° SSE
SKYMED 2 4.4 06:08:43 10° SSW 06:12:06 31° WSW 06:12:06 31° WSW
Meteor 1-22 Rocket 4.5 06:07:16 10° SW 06:12:44 46° WNW 06:18:26 10° N
Cosmos 1937 Rocket 3.6 06:09:27 11° NNW 06:14:32 80° ENE 06:19:48 10° SSE
Cosmos 1455 Rocket 2.9 06:10:38 10° S 06:15:01 85° WNW 06:19:24 10° N
Cosmos 1340 4.1 06:12:04 10° N 06:15:35 37° ENE 06:19:05 10° SE
Envisat 3.1 06:12:24 10° NNE 06:17:31 81° ESE 06:22:36 10° SSW
Cosmos 1953 2.8 06:14:43 10° S 06:18:40 63° E 06:22:37 10° NNE
Cosmos 2219 Rocket 2.1 06:15:59 10° SW 06:21:34 72° WNW 06:27:11 10° NNE
Cosmos 1943 Rocket 4.2 06:18:00 10° N 06:22:19 22° NE 06:26:37 10° E
COSMOS 2428 2.6 06:16:55 10° SSW 06:22:38 83° WNW 06:28:23 10° NNE
Cosmos 44 Rocket 3.6 06:20:39 17° NNW 06:24:43 71° NE 06:29:56 10° SE
CZ-2C R/B 2.8 06:22:52 10° SSE 06:28:02 75° ENE 06:33:21 10° N
Cosmos 2333 4.4 06:24:08 10° SW 06:29:30 48° NW 06:34:58 10° NNE
CZ-4B R/B 3.3 06:28:13 10° N 06:31:26 32° WNW 06:34:39 10° SW
deb Chang Zheng 4 4.2 06:30:22 10° N 06:34:09 31° WNW 06:37:52 10° SW
ALOS 4.4 06:33:52 10° NNW 06:34:05 11° NNW 06:34:05 11° NNW
SL-16 R/B 3.7 06:37:37 16° NW 06:38:33 17° NW 06:42:07 10° N
USA 276 3.8 06:38:19 18° WSW 06:39:12 20° SW 06:41:37 10° SSE
USA 215 3.7 06:34:16 10° E 06:40:32 52° NNE 06:46:00 14° NW
Cosmos 1980 4.2 06:36:33 10° SSW 06:42:07 63° ESE 06:47:44 10° NNE
Cosmos 1602 Rocket 3.7 06:39:21 10° N 06:43:48 80° E 06:48:15 10° SSE
Cosmos 1758 4.0 06:41:53 10° SW 06:45:32 32° WNW 06:49:13 10° N
CZ-4B DEB 4.2 06:39:59 10° NNE 06:45:35 82° WNW 06:51:08 10° SSW
Meteor 2-13 Rocket 4.5 06:40:46 10° NNW 06:46:50 61° W 06:52:52 10° S
Cosmos 2322 Rocket 3.7 06:45:44 16° NW 06:47:11 17° NW 06:50:47 10° N
Cosmos 2360 Rocket 3.3 06:46:13 16° W 06:49:06 24° NW 06:53:38 10° N
SL-19 R/B 4.4 06:50:21 10° N 06:54:49 66° WNW 06:58:40 10° SSW
H-2A R/B 2.6 06:50:49 10° NNE 06:55:14 80° WNW 06:59:45 10° SSW
NOAA 12 4.1 06:50:17 10° NNE 06:55:35 89° E 07:00:54 10° SSW
Cosmos 1464 Rocket 4.3 06:53:02 10° SW 06:58:48 43° WNW 07:04:37 10° N
Cosmos 1908 3.1 06:55:11 10° SSW 06:58:58 69° W 07:02:48 10° N
SMAP 3.0 06:56:36 10° N 07:01:17 77° WNW 07:05:54 10° SSW
Cosmos 1939 Rocket 3.7 06:57:39 10° NNE 07:01:34 53° E 07:05:24 10° S
Cosmos 1825 Rocket 4.5 06:58:15 10° N 07:02:38 52° ENE 07:06:59 10° SSE
Meteor 1-16 Rocket 4.3 06:57:51 10° SSW 07:03:42 71° WNW 07:09:39 10° N
Meteor 1-11 4.3 06:59:52 10° N 07:05:30 82° ENE 07:11:05 10° SSE
MOS 1-B 4.3 07:00:30 10° NNE 07:06:15 69° WNW 07:11:58 10° SSW
Cosmos 2195 Rocket 4.5 07:00:01 10° NNW 07:06:20 77° W 07:12:34 10° S
CZ-4 R/B 4.1 07:03:15 10° NE 07:06:24 23° E 07:09:31 10° SSE
Cosmos 540 Rocket 3.4 07:04:53 10° SSW 07:09:58 70° WNW 07:15:07 10° NNE
Cosmos 2298 Rocket 4.3 07:07:47 10° NNW 07:13:10 76° ENE 07:18:30 10° SSE
Lacrosse 5 rocket 1.2 07:09:58 11° NW 07:13:47 75° NNE 07:17:30 10° ESE
Cosmos 1346 Rocket 3.0 07:11:03 10° N 07:15:02 74° ENE 07:18:59 10° SSE
Spot 2 4.3 07:11:37 10° N 07:15:28 40° WNW 07:19:14 10° SW
YAOGAN 6 3.9 07:13:53 10° NNW 07:16:44 21° WNW 07:19:34 10° WSW
Cosmos 2098 Rocket 4.1 07:10:38 10° N 07:17:35 89° ENE 07:23:14 10° S
Cosmos 1703 3.8 07:14:15 10° NNW 07:17:52 36° W 07:21:26 10° SSW
Cosmos 1953 Rocket 4.4 07:17:02 10° N 07:21:18 53° ENE 07:25:32 10° SSE
Cosmos 1570 Rocket 4.0 07:16:18 10° SSW 07:21:31 72° WNW 07:26:46 10° NNE
NOSS 0 Rocket 4.0 07:15:55 10° SW 07:22:03 63° WNW 07:28:13 10° NNE
Cosmos 921 Rocket 3.9 07:19:12 10° WSW 07:22:50 26° WNW 07:26:27 10° N
ATLAS CENTAUR R/B 4.1 07:20:42 10° S 07:23:39 23° ESE 07:26:35 10° ENE
Cosmos 1544 Rocket 4.5 07:21:58 10° SW 07:25:35 26° WNW 07:29:15 10° NNW
Cosmos 1763 Rocket 4.2 07:21:18 10° WSW 07:25:54 32° NW 07:30:35 10° N
PAYLOAD B 4.4 07:20:42 10° N 07:26:03 50° WNW 07:31:24 10° SW
Cosmos 1092 Rocket 4.2 07:21:26 10° NNW 07:27:20 50° W 07:33:13 10° SSW
Cosmos 841 Rocket 3.6 07:22:54 10° SW 07:27:56 54° WNW 07:33:00 10° NNE
